Showing default

YAOGAN-30 G, 43081

Orbit data source: Space-Track

YAOGAN-30 G, 43081 is a payload satellite owned by PLA SSF (CN) in LEO that was launched on Mon, 25 Dec 2017 UTC via a CHANG ZHENG 2C launch vehicle from the Xichang Space Center, China (XSC). Payload-class satellites include a variety of spacecraft equipped with specific instruments for various scientific and technological missions. These include communications satellites like Starlink; space stations such as the ISS; scientific satellites like the Hubble; Earth observation satellites from companies like Planet Labs, Umbra, and HawkEye 360; GPS; miniature CubeSats for education and research; and military/defense satellites.

Loading next visibility...
Identifier
43081, 2017-085A
Orbit
LEO
Country
Flag of CNCN / PRC
Related business
Manufacturer
SECM
Mission
Operational Defense Sigint
Bus & Motor
Unknown
Mass
~500 kg wet, ~500 kg dry
Launch date (UTC)
2017-12-25 (8 years ago)
Launch vehicle
CHANG ZHENG 2C
Launch site
Xichang Space Center, China (XSC)
Object type
Payload
Rocket body
Debris
Shape & HBR
Box + 2 Pan, 0.5 m
Radar Cross Section
0.446 m², Large (>1 m²)

Expand to show TLE details & history
Last TLE update: 1 day ago

TLE from 1 day ago
0 YAOGAN-30 G
1 43081U 17085A   26172.33850470  .00001797  00000-0  13406-3 0  9996
2 43081  34.9949 124.7508 0005044 197.1000 162.9538 15.02705577463347
Epoch: 2026-06-21T08:07Z
TLE epoch observation values (Epoch: 2026-06-21T08:07:26.806Z)
Latitude
-0.00005°
Longitude
93.34884°
Altitude
560.818 km
Speed
7.581 km/s
True Right ascension
08h 19m 00s
True Declination
0° 00' 00"
Sunlit
Object was in daylight at epoch
Visualization orbit readout
Latitude
Unknown
Longitude
Unknown
Altitude
Unknown
Speed
Unknown
Apparent Right ascension
Unknown
Apparent Declination
Unknown
Sunlit
N/A
Visualization observer readout
Local Sidereal Time
21:31:10
Azimuth
Unknown
Elevation
Unknown
Doppler factor
Unknown
Orbital elements
Apogee altitude
565.28 km
Perigee altitude
558.279 km
Semi-major axis
6,939.917 km
Eccentricity
0.0005
Inclination
34.9949°
RAAN
124.7508°
Arg. of periapsis
197.1°
True anomaly
162.97073°
Mean anomaly
162.9538°
Eccentric anomaly
162.96227°
Mean motion
3.75415 °/min
Orbital period
95.89 mins
BSTAR
0.00013406
Loading maneuver chart data...
Computing Atmospheric mass density...
Loading historical data...
Loading historical data...
Loading historical data...
Loading historical data...
Loading historical data...
Loading historical data...
Loading historical data...
Other satellites on launch #85 in the year 2017 (2017-12-25 UTC)

Documentation

Showing up to 5 results
|